Погода в Маручидоре

Австралия     26°39′42″S   153°06′16″E
темп.,
°C
ветер,
м/с
пор.,
м/с
влажн.,
%
обл.,
%
осадки,
мм/ч
давл.,
гПа
погр.,
м
21 июня, пн
пн2101:00+11зюз22932 0.0 102048
04:00+10юз23949 0.0 102059
07:00+9юз129410 0.0 102151
10:00+18ю26560 0.0 1022746
13:00+20юв35490 0.0 10201320
16:00+18юв25600 0.0 1020563
19:00+14ю26823 0.0 1023285
22:00+12ююз279632 0.3 1025216
22 июня, вт
вт2201:00+13ююз3988100 0.4 1025505
04:00+13ююз298798 0.7 1025407
07:00+12ююз299180 0.1 1026342
10:00+18ююв496318 0.2 10271307
13:00+19ююв475314 0.1 10261685
16:00+16ююв487999 0.4 1026853
19:00+15ю267353 0.1 1028282
22:00+12юз269215 0.3 1028181
23 июня, ср
ср2301:00+14юз148699 0.1 1027155
04:00+14юз1383100 0.1 1026108
07:00+14ююз1281100 0.0 102789
10:00+20в2552100 0.0 10271775
13:00+20всв245398 0.0 10251430
16:00+19всв246374 0.0 1024534
19:00+14сз1184100 0.0 102432
22:00+15зюз1181100 0.1 102543
24 июня, чт
чт2401:00+14з119796 0.9 102445
04:00+13зсз1298100 0.9 102344
07:00+14зсз119696 0.0 102318
10:00+18с138295 0.0 1023319
13:00+21ссв365772 0.0 10191128
16:00+20ссв376972 0.0 1018754
19:00+17с2682100 0.0 1019277
22:00+14сз22947 0.0 102055
25 июня, пт
пт2501:00+13сз239819 0.0 101971
04:00+13зсз229871 0.0 101950
07:00+14сз239823 0.0 102063
10:00+22ссз256599 0.0 1020881
13:00+24с255999 0.1 10171557
16:00+19ссв259591 1.9 1017145
19:00+17зсз119777 3.4 101817
22:00+16юз1299100 7.1 101996